| time (UTC) | temp C | wind direction | speed KPH | gust KPH | rain 1hr cm | rain 24hr cm | rain mn cm | humidity % | barometer mb |
| 20260502130525 | 11 | 17 | 0.0 | 4.8 | 0.00 | 0.00 | 0.00 | 79 | 1011.3 |
| 20260502123522 | 11 | 197 | 0.0 | 1.6 | 0.00 | 0.00 | 0.00 | 81 | 1011.1 |
| 20260502123022 | 10 | 197 | 0.0 | 3.2 | 0.00 | 0.00 | 0.00 | 80 | 1011.2 |
| 20260502122521 | 10 | 199 | 0.0 | 3.2 | 0.00 | 0.00 | 0.00 | 81 | 1011.3 |
| 20260502122021 | 10 | 190 | 0.0 | 3.2 | 0.00 | 0.00 | 0.00 | 81 | 1011.2 |
| 20260502121523 | 10 | 191 | 0.0 | 4.8 | 0.00 | 0.00 | 0.00 | 81 | 1011.0 |
| 20260502121020 | 10 | 172 | 0.0 | 4.8 | 0.00 | 0.00 | 0.00 | 81 | 1010.9 |
| 20260502120519 | 10 | 207 | 0.0 | 3.2 | 0.00 | 0.00 | 0.00 | 81 | 1010.9 |
| 20260502115520 | 10 | 189 | 0.0 | 6.4 | 0.00 | 0.00 | 0.00 | 81 | 1010.9 |
| 20260502115019 | 10 | 183 | 1.6 | 4.8 | 0.00 | 0.00 | 0.00 | 81 | 1010.9 |
| 20260502114517 | 10 | 202 | 0.0 | 4.8 | 0.00 | 0.00 | 0.00 | 81 | 1011.0 |
| 20260502114016 | 10 | 199 | 0.0 | 4.8 | 0.00 | 0.00 | 0.00 | 80 | 1010.9 |
| 20260502113516 | 10 | 185 | 0.0 | 3.2 | 0.00 | 0.00 | 0.00 | 81 | 1010.8 |
| 20260502113018 | 10 | 208 | 0.0 | 4.8 | 0.00 | 0.00 | 0.00 | 81 | 1010.8 |
| 20260502112515 | 10 | 202 | 0.0 | 4.8 | 0.00 | 0.00 | 0.00 | 81 | 1010.7 |
| 20260502112014 | 10 | 196 | 0.0 | 3.2 | 0.00 | 0.00 | 0.00 | 81 | 1010.7 |
| 20260502111513 | 10 | 197 | 0.0 | 3.2 | 0.00 | 0.00 | 0.00 | 81 | 1010.6 |
| 20260502111013 | 10 | 202 | 0.0 | 3.2 | 0.00 | 0.00 | 0.00 | 81 | 1010.6 |
| 20260502110513 | 9 | 195 | 0.0 | 3.2 | 0.00 | 0.00 | 0.00 | 81 | 1010.6 |
| 20260502110013 | 9 | 190 | 0.0 | 3.2 | 0.00 | 0.00 | 0.00 | 81 | 1010.6 |
| 20260502105512 | 9 | 196 | 0.0 | 3.2 | 0.00 | 0.00 | 0.00 | 80 | 1010.6 |
| 20260502105011 | 9 | 196 | 0.0 | 3.2 | 0.00 | 0.00 | 0.00 | 80 | 1010.7 |
| 20260502104510 | 9 | 202 | 0.0 | 0.0 | 0.00 | 0.00 | 0.00 | 80 | 1010.5 |
| 20260502104010 | 9 | 197 | 0.0 | 0.0 | 0.00 | 0.00 | 0.00 | 80 | 1010.5 |
| 20260502103510 | 9 | 199 | 0.0 | 0.0 | 0.00 | 0.00 | 0.00 | 80 | 1010.4 |
| 20260502103010 | 9 | 199 | 0.0 | 0.0 | 0.00 | 0.00 | 0.00 | 80 | 1010.4 |
| 20260502102510 | 9 | 195 | 0.0 | 0.0 | 0.00 | 0.00 | 0.00 | 80 | 1010.3 |
| 20260502102010 | 9 | 193 | 0.0 | 0.0 | 0.00 | 0.00 | 0.00 | 80 | 1010.2 |
| 20260502101511 | 9 | 193 | 0.0 | 0.0 | 0.00 | 0.00 | 0.00 | 79 | 1010.3 |
| 20260502101009 | 9 | 193 | 0.0 | 0.0 | 0.00 | 0.00 | 0.00 | 79 | 1010.2 |
| 20260502100509 | 9 | 193 | 0.0 | 0.0 | 0.00 | 0.00 | 0.00 | 79 | 1010.2 |
| 20260502091506 | 9 | 191 | 0.0 | 0.0 | 0.00 | 0.00 | 0.00 | 77 | 1010.1 |
| 20260502091006 | 9 | 192 | 0.0 | 0.0 | 0.00 | 0.00 | 0.00 | 77 | 1010.1 |
| 20260502090505 | 9 | 189 | 0.0 | 0.0 | 0.00 | 0.00 | 0.00 | 78 | 1010.0 |
| 20260502071057 | 10 | 195 | 0.0 | 4.8 | 0.00 | 0.00 | 0.00 | 73 | 1009.9 |
| 20260502070556 | 10 | 188 | 0.0 | 3.2 | 0.00 | 0.00 | 0.00 | 73 | 1009.9 |
| 20260502070055 | 10 | 184 | 0.0 | 0.0 | 0.00 | 0.00 | 0.00 | 73 | 1010.0 |
| 20260502065554 | 10 | 184 | 0.0 | 0.0 | 0.00 | 0.00 | 0.00 | 72 | 1010.0 |
| 20260502065055 | 10 | 184 | 0.0 | 0.0 | 0.00 | 0.00 | 0.00 | 71 | 1009.9 |
| 20260502064552 | 10 | 184 | 0.0 | 1.6 | 0.00 | 0.00 | 0.00 | 71 | 1010.0 |
| 20260502064051 | 10 | 184 | 0.0 | 1.6 | 0.00 | 0.00 | 0.00 | 70 | 1010.0 |
| 20260502063550 | 11 | 183 | 0.0 | 0.0 | 0.00 | 0.00 | 0.00 | 70 | 1010.1 |
| 20260502063051 | 11 | 183 | 0.0 | 1.6 | 0.00 | 0.00 | 0.00 | 69 | 1010.1 |
| 20260502062549 | 11 | 183 | 0.0 | 1.6 | 0.00 | 0.00 | 0.00 | 68 | 1010.2 |
| 20260502062050 | 11 | 178 | 0.0 | 4.8 | 0.00 | 0.00 | 0.00 | 68 | 1010.1 |
| 20260502061549 | 11 | 178 | 0.0 | 4.8 | 0.00 | 0.00 | 0.00 | 68 | 1010.2 |
| 20260502061048 | 11 | 190 | 0.0 | 3.2 | 0.00 | 0.00 | 0.00 | 69 | 1010.0 |
| 20260502060647 | 11 | 191 | 0.0 | 3.2 | 0.00 | 0.00 | 0.00 | 68 | 1010.1 |
| 20260502060047 | 11 | 192 | 0.0 | 3.2 | 0.00 | 0.00 | 0.00 | 68 | 1010.1 |
| 20260502055547 | 11 | 189 | 0.0 | 3.2 | 0.00 | 0.00 | 0.00 | 67 | 1010.2 |
| 20260502055046 | 11 | 191 | 0.0 | 6.4 | 0.00 | 0.00 | 0.00 | 67 | 1010.2 |
| 20260502054547 | 11 | 192 | 0.0 | 6.4 | 0.00 | 0.00 | 0.00 | 66 | 1010.2 |
| 20260502054046 | 11 | 195 | 1.6 | 6.4 | 0.00 | 0.00 | 0.00 | 66 | 1010.3 |
| 20260502053544 | 11 | 196 | 1.6 | 4.8 | 0.00 | 0.00 | 0.00 | 67 | 1010.4 |
| 20260502053052 | 11 | 190 | 0.0 | 3.2 | 0.00 | 0.00 | 0.00 | 67 | 1010.4 |
| 20260502052544 | 11 | 188 | 0.0 | 4.8 | 0.00 | 0.00 | 0.00 | 66 | 1010.3 |
| 20260502052043 | 11 | 193 | 0.0 | 4.8 | 0.00 | 0.00 | 0.00 | 67 | 1010.3 |
| 20260502051555 | 11 | 192 | 0.0 | 1.6 | 0.00 | 0.00 | 0.00 | 67 | 1010.3 |
| 20260502051042 | 10 | 184 | 0.0 | 0.0 | 0.00 | 0.00 | 0.00 | 67 | 1010.3 |
| 20260502050544 | 11 | 171 | 0.0 | 1.6 | 0.00 | 0.00 | 0.00 | 68 | 1010.2 |
| 20260502050054 | 11 | 190 | 0.0 | 1.6 | 0.00 | 0.00 | 0.00 | 68 | 1010.3 |
| 20260502045544 | 11 | 195 | 0.0 | 1.6 | 0.00 | 0.00 | 0.00 | 69 | 1010.3 |
| 20260502045040 | 11 | 177 | 0.0 | 6.4 | 0.00 | 0.00 | 0.00 | 68 | 1010.4 |
| 20260502044541 | 11 | 197 | 0.0 | 6.4 | 0.00 | 0.00 | 0.00 | 68 | 1010.4 |
| 20260502044039 | 11 | 194 | 0.0 | 0.0 | 0.00 | 0.00 | 0.00 | 68 | 1010.4 |
| 20260502043537 | 11 | 194 | 0.0 | 4.8 | 0.00 | 0.00 | 0.00 | 68 | 1010.4 |
| 20260502043038 | 11 | 199 | 0.0 | 4.8 | 0.00 | 0.00 | 0.00 | 68 | 1010.4 |
| 20260502042539 | 11 | 213 | 1.6 | 8.0 | 0.00 | 0.00 | 0.00 | 67 | 1010.5 |
| 20260502042036 | 11 | 189 | 0.0 | 8.0 | 0.00 | 0.00 | 0.00 | 68 | 1010.4 |
| 20260502041538 | 11 | 171 | 0.0 | 4.8 | 0.00 | 0.00 | 0.00 | 68 | 1010.4 |
| 20260502041034 | 11 | 194 | 0.0 | 4.8 | 0.00 | 0.00 | 0.00 | 68 | 1010.5 |
| 20260502040535 | 11 | 190 | 0.0 | 4.8 | 0.00 | 0.00 | 0.00 | 68 | 1010.5 |
| 20260502040033 | 11 | 174 | 1.6 | 4.8 | 0.00 | 0.00 | 0.00 | 68 | 1010.5 |
| 20260502035533 | 11 | 174 | 1.6 | 6.4 | 0.00 | 0.00 | 0.00 | 68 | 1010.5 |
| 20260502035033 | 11 | 191 | 0.0 | 6.4 | 0.00 | 0.00 | 0.00 | 67 | 1010.5 |
| 20260502034536 | 11 | 203 | 0.0 | 6.4 | 0.00 | 0.00 | 0.00 | 68 | 1010.5 |
| 20260502034033 | 11 | 185 | 1.6 | 6.4 | 0.00 | 0.00 | 0.00 | 67 | 1010.5 |
| 20260502033533 | 11 | 175 | 0.0 | 6.4 | 0.00 | 0.00 | 0.00 | 68 | 1010.5 |
| 20260502033036 | 11 | 185 | 0.0 | 6.4 | 0.00 | 0.00 | 0.00 | 67 | 1010.4 |
| 20260502032532 | 11 | 187 | 0.0 | 6.4 | 0.00 | 0.00 | 0.00 | 67 | 1010.3 |
| 20260502032032 | 11 | 197 | 0.0 | 4.8 | 0.00 | 0.00 | 0.00 | 67 | 1010.5 |
| 20260502031532 | 11 | 228 | 0.0 | 3.2 | 0.00 | 0.00 | 0.00 | 67 | 1010.4 |
| 20260502031032 | 11 | 194 | 0.0 | 3.2 | 0.00 | 0.00 | 0.00 | 67 | 1010.4 |
| 20260502030531 | 11 | 172 | 0.0 | 3.2 | 0.00 | 0.00 | 0.00 | 66 | 1010.4 |
| 20260502030030 | 11 | 187 | 0.0 | 3.2 | 0.00 | 0.00 | 0.00 | 67 | 1010.3 |
| 20260502025534 | 11 | 202 | 0.0 | 1.6 | 0.00 | 0.00 | 0.00 | 66 | 1010.3 |
| 20260502025030 | 11 | 166 | 0.0 | 1.6 | 0.00 | 0.00 | 0.00 | 66 | 1010.3 |
| 20260502024532 | 11 | 200 | 0.0 | 4.8 | 0.00 | 0.00 | 0.00 | 65 | 1010.2 |
| 20260502024029 | 12 | 208 | 0.0 | 6.4 | 0.00 | 0.00 | 0.00 | 65 | 1010.2 |
| 20260502023529 | 12 | 189 | 0.0 | 6.4 | 0.00 | 0.00 | 0.00 | 64 | 1010.2 |
| 20260502023029 | 12 | 183 | 0.0 | 6.4 | 0.00 | 0.00 | 0.00 | 64 | 1010.2 |
| 20260502022529 | 12 | 190 | 0.0 | 6.4 | 0.00 | 0.00 | 0.00 | 64 | 1010.2 |
| 20260502022031 | 12 | 190 | 0.0 | 6.4 | 0.00 | 0.00 | 0.00 | 63 | 1010.2 |
| 20260502021528 | 12 | 199 | 0.0 | 6.4 | 0.00 | 0.00 | 0.00 | 63 | 1010.3 |
| 20260502021028 | 12 | 166 | 0.0 | 3.2 | 0.00 | 0.00 | 0.00 | 62 | 1010.2 |
| 20260502020528 | 12 | 193 | 0.0 | 9.7 | 0.00 | 0.00 | 0.00 | 61 | 1010.2 |
| 20260502020028 | 12 | 191 | 0.0 | 9.7 | 0.00 | 0.00 | 0.00 | 59 | 1010.3 |
| 20260502015528 | 12 | 167 | 0.0 | 3.2 | 0.00 | 0.00 | 0.00 | 58 | 1010.2 |
| 20260502015030 | 12 | 188 | 0.0 | 3.2 | 0.00 | 0.00 | 0.00 | 57 | 1010.2 |
| 20260502014531 | 12 | 192 | 0.0 | 3.2 | 0.00 | 0.00 | 0.00 | 56 | 1010.2 |
| 20260502014026 | 12 | 207 | 0.0 | 4.8 | 0.00 | 0.00 | 0.00 | 55 | 1010.2 |
| 20260502013526 | 12 | 192 | 0.0 | 4.8 | 0.00 | 0.00 | 0.00 | 55 | 1010.1 |
| 20260502013025 | 12 | 187 | 0.0 | 3.2 | 0.00 | 0.00 | 0.00 | 53 | 1010.1 |
| 20260502012525 | 12 | 205 | 0.0 | 3.2 | 0.00 | 0.00 | 0.00 | 52 | 1010.1 |
| 20260502012025 | 13 | 164 | 0.0 | 1.6 | 0.00 | 0.00 | 0.00 | 52 | 1010.0 |
| 20260502011542 | 13 | 196 | 0.0 | 0.0 | 0.00 | 0.00 | 0.00 | 52 | 1010.0 |
| 20260502011024 | 13 | 180 | 0.0 | 0.0 | 0.00 | 0.00 | 0.00 | 51 | 1009.8 |
| 20260502010523 | 13 | 195 | 0.0 | 0.0 | 0.00 | 0.00 | 0.00 | 51 | 1009.8 |
| 20260502010024 | 13 | 195 | 0.0 | 0.0 | 0.00 | 0.00 | 0.00 | 50 | 1009.8 |
| 20260502005522 | 13 | 190 | 0.0 | 1.6 | 0.00 | 0.00 | 0.00 | 52 | 1009.7 |
| 20260502005022 | 13 | 191 | 0.0 | 6.4 | 0.00 | 0.00 | 0.00 | 51 | 1009.6 |
| 20260502004524 | 13 | 203 | 0.0 | 6.4 | 0.00 | 0.00 | 0.00 | 51 | 1009.4 |
| 20260502004020 | 13 | 197 | 0.0 | 4.8 | 0.00 | 0.00 | 0.00 | 51 | 1009.3 |
| 20260502003518 | 13 | 200 | 0.0 | 3.2 | 0.00 | 0.00 | 0.00 | 50 | 1009.3 |
| 20260502003024 | 14 | 202 | 0.0 | 4.8 | 0.00 | 0.00 | 0.00 | 49 | 1009.1 |
| 20260502002518 | 14 | 181 | 1.6 | 4.8 | 0.00 | 0.00 | 0.00 | 48 | 1009.0 |
| 20260502002018 | 14 | 188 | 0.0 | 3.2 | 0.00 | 0.00 | 0.00 | 48 | 1008.9 |
| 20260502001518 | 14 | 181 | 0.0 | 3.2 | 0.00 | 0.00 | 0.00 | 47 | 1008.9 |
| 20260502001020 | 15 | 193 | 0.0 | 3.2 | 0.00 | 0.00 | 0.00 | 46 | 1008.7 |
| 20260502000518 | 15 | 199 | 0.0 | 3.2 | 0.00 | 0.00 | 0.00 | 43 | 1008.8 |
| 20260502000018 | 15 | 200 | 0.0 | 0.0 | 0.00 | 0.00 | 0.00 | 40 | 1008.6 |
| 20260501235521 | 15 | 201 | 0.0 | 0.0 | 0.00 | 0.00 | 0.00 | 38 | 1008.5 |
| 20260501235018 | 15 | 200 | 0.0 | 0.0 | 0.00 | 0.00 | 0.00 | 38 | 1008.4 |
| 20260501234517 | 16 | 200 | 0.0 | 0.0 | 0.00 | 0.00 | 0.00 | 37 | 1008.4 |
| 20260501234016 | 16 | 200 | 0.0 | 1.6 | 0.00 | 0.00 | 0.00 | 36 | 1008.3 |
| 20260501233516 | 16 | 201 | 0.0 | 1.6 | 0.00 | 0.00 | 0.00 | 36 | 1008.2 |
| 20260501233017 | 16 | 348 | 0.0 | 6.4 | 0.00 | 0.00 | 0.00 | 36 | 1008.2 |
| 20260501232518 | 16 | 346 | 0.0 | 6.4 | 0.00 | 0.00 | 0.00 | 35 | 1008.1 |
| 20260501232020 | 17 | 297 | 0.0 | 4.8 | 0.00 | 0.00 | 0.00 | 34 | 1007.9 |
| 20260501231532 | 17 | 5 | 0.0 | 6.4 | 0.00 | 0.00 | 0.00 | 35 | 1007.9 |
| 20260501231016 | 17 | 178 | 0.0 | 6.4 | 0.00 | 0.00 | 0.00 | 34 | 1007.8 |
| 20260501230516 | 17 | 4 | 0.0 | 12.9 | 0.00 | 0.00 | 0.00 | 34 | 1007.7 |
| 20260501230019 | 17 | 346 | 0.0 | 12.9 | 0.00 | 0.00 | 0.00 | 33 | 1007.7 |
| 20260501225516 | 17 | 4 | 1.6 | 9.7 | 0.00 | 0.00 | 0.00 | 33 | 1007.6 |
| 20260501225018 | 17 | 7 | 3.2 | 9.7 | 0.00 | 0.00 | 0.00 | 33 | 1007.6 |
| 20260501224515 | 17 | 198 | 0.0 | 8.0 | 0.00 | 0.00 | 0.00 | 34 | 1007.6 |
| 20260501224014 | 17 | 199 | 0.0 | 6.4 | 0.00 | 0.00 | 0.00 | 35 | 1007.6 |
| 20260501223514 | 17 | 199 | 0.0 | 11.3 | 0.00 | 0.00 | 0.00 | 33 | 1007.5 |
| 20260501223014 | 17 | 353 | 0.0 | 11.3 | 0.00 | 0.00 | 0.00 | 32 | 1007.6 |
| 20260501222514 | 17 | 345 | 3.2 | 9.7 | 0.00 | 0.00 | 0.00 | 33 | 1007.4 |
| 20260501222014 | 17 | 11 | 1.6 | 9.7 | 0.00 | 0.00 | 0.00 | 32 | 1007.3 |
| 20260501221513 | 17 | 1 | 1.6 | 14.5 | 0.00 | 0.00 | 0.00 | 32 | 1007.3 |
| 20260501221013 | 18 | 8 | 4.8 | 14.5 | 0.00 | 0.00 | 0.00 | 32 | 1007.3 |
| 20260501220513 | 18 | 350 | 4.8 | 12.9 | 0.00 | 0.00 | 0.00 | 34 | 1007.4 |
| 20260501220013 | 18 | 209 | 1.6 | 12.9 | 0.00 | 0.00 | 0.00 | 32 | 1007.3 |
| 20260501215513 | 18 | 182 | 0.0 | 11.3 | 0.00 | 0.00 | 0.00 | 34 | 1007.3 |
| 20260501215013 | 18 | 263 | 1.6 | 11.3 | 0.00 | 0.00 | 0.00 | 32 | 1007.3 |
| 20260501214515 | 18 | 168 | 0.0 | 8.0 | 0.00 | 0.00 | 0.00 | 33 | 1007.2 |
| 20260501214015 | 18 | 252 | 1.6 | 8.0 | 0.00 | 0.00 | 0.00 | 34 | 1007.3 |
| 20260501213514 | 18 | 5 | 0.0 | 8.0 | 0.00 | 0.00 | 0.00 | 34 | 1007.1 |
| 20260501213018 | 18 | 3 | 1.6 | 8.0 | 0.00 | 0.00 | 0.00 | 33 | 1007.1 |
| 20260501212511 | 18 | 189 | 1.6 | 6.4 | 0.00 | 0.00 | 0.00 | 34 | 1007.1 |
| 20260501212011 | 18 | 356 | 0.0 | 6.4 | 0.00 | 0.00 | 0.00 | 35 | 1007.0 |
| 20260501211511 | 18 | 5 | 0.0 | 6.4 | 0.00 | 0.00 | 0.00 | 34 | 1007.0 |
| 20260501211010 | 18 | 5 | 1.6 | 6.4 | 0.00 | 0.00 | 0.00 | 34 | 1007.1 |
| 20260501210510 | 18 | 5 | 1.6 | 6.4 | 0.00 | 0.00 | 0.00 | 35 | 1007.1 |
| 20260501210010 | 18 | 221 | 0.0 | 8.0 | 0.00 | 0.00 | 0.00 | 35 | 1007.0 |
| 20260501205510 | 18 | 211 | 1.6 | 11.3 | 0.00 | 0.00 | 0.00 | 33 | 1007.0 |
| 20260501205011 | 18 | 212 | 1.6 | 12.9 | 0.00 | 0.00 | 0.00 | 35 | 1007.0 |
| 20260501204509 | 18 | 353 | 1.6 | 12.9 | 0.00 | 0.00 | 0.00 | 34 | 1006.9 |
| 20260501204007 | 19 | 3 | 1.6 | 9.7 | 0.00 | 0.00 | 0.00 | 33 | 1007.0 |
| 20260501203506 | 20 | 8 | 1.6 | 9.7 | 0.00 | 0.00 | 0.00 | 32 | 1006.9 |
| 20260501203006 | 20 | 161 | 0.0 | 9.7 | 0.00 | 0.00 | 0.00 | 33 | 1007.1 |
| 20260501202510 | 20 | 344 | 3.2 | 12.9 | 0.00 | 0.00 | 0.00 | 33 | 1007.0 |
| 20260501202006 | 20 | 203 | 3.2 | 12.9 | 0.00 | 0.00 | 0.00 | 33 | 1007.0 |
| 20260501201505 | 20 | 185 | 4.8 | 11.3 | 0.00 | 0.00 | 0.00 | 32 | 1007.0 |
| 20260501201004 | 20 | 188 | 0.0 | 11.3 | 0.00 | 0.00 | 0.00 | 35 | 1007.1 |
| 20260501200506 | 20 | 109 | 3.2 | 11.3 | 0.00 | 0.00 | 0.00 | 31 | 1007.1 |
| 20260501200003 | 20 | 356 | 4.8 | 11.3 | 0.00 | 0.00 | 0.00 | 35 | 1007.1 |
| 20260501195503 | 19 | 15 | 3.2 | 11.3 | 0.00 | 0.00 | 0.00 | 34 | 1007.1 |
| 20260501195003 | 19 | 359 | 0.0 | 11.3 | 0.00 | 0.00 | 0.00 | 36 | 1007.1 |
| 20260501194504 | 19 | 6 | 1.6 | 11.3 | 0.00 | 0.00 | 0.00 | 34 | 1007.1 |
| 20260501194002 | 19 | 291 | 1.6 | 11.3 | 0.00 | 0.00 | 0.00 | 36 | 1007.2 |
| 20260501193501 | 19 | 195 | 1.6 | 11.3 | 0.00 | 0.00 | 0.00 | 37 | 1007.3 |
| 20260501193100 | 19 | 358 | 0.0 | 11.3 | 0.00 | 0.00 | 0.00 | 37 | 1007.3 |
| 20260501192601 | 19 | 155 | 1.6 | 16.1 | 0.00 | 0.00 | 0.00 | 37 | 1007.3 |
| 20260501192100 | 18 | 195 | 3.2 | 16.1 | 0.00 | 0.00 | 0.00 | 37 | 1007.4 |
| 20260501191600 | 19 | 344 | 1.6 | 14.5 | 0.00 | 0.00 | 0.00 | 37 | 1007.6 |
| 20260501191101 | 18 | 218 | 3.2 | 14.5 | 0.00 | 0.00 | 0.00 | 39 | 1007.6 |
| 20260501190558 | 19 | 83 | 1.6 | 8.0 | 0.00 | 0.00 | 0.00 | 37 | 1007.5 |
| 20260501190115 | 18 | 266 | 0.0 | 14.5 | 0.00 | 0.00 | 0.00 | 37 | 1007.5 |
| 20260501185557 | 18 | 275 | 1.6 | 16.1 | 0.00 | 0.00 | 0.00 | 39 | 1007.6 |
| 20260501185058 | 18 | 134 | 4.8 | 16.1 | 0.00 | 0.00 | 0.00 | 36 | 1007.7 |
| 20260501184558 | 18 | 360 | 3.2 | 14.5 | 0.00 | 0.00 | 0.00 | 36 | 1007.7 |
| 20260501184056 | 18 | 4 | 3.2 | 14.5 | 0.00 | 0.00 | 0.00 | 37 | 1007.8 |
| 20260501183559 | 18 | 215 | 1.6 | 12.9 | 0.00 | 0.00 | 0.00 | 39 | 1007.7 |
| 20260501183100 | 18 | 349 | 3.2 | 12.9 | 0.00 | 0.00 | 0.00 | 40 | 1007.8 |
| 20260501182554 | 18 | 16 | 1.6 | 12.9 | 0.00 | 0.00 | 0.00 | 44 | 1007.8 |
| 20260501182053 | 17 | 356 | 3.2 | 19.3 | 0.00 | 0.00 | 0.00 | 39 | 1007.8 |
| 20260501181552 | 17 | 353 | 4.8 | 19.3 | 0.00 | 0.00 | 0.00 | 40 | 1007.8 |
| 20260501181050 | 17 | 221 | 1.6 | 14.5 | 0.00 | 0.00 | 0.00 | 42 | 1007.8 |
| 20260501180550 | 17 | 357 | 1.6 | 14.5 | 0.00 | 0.00 | 0.00 | 41 | 1007.9 |
| 20260501180049 | 16 | 164 | 3.2 | 12.9 | 0.00 | 0.00 | 0.00 | 43 | 1007.9 |
| 20260501175549 | 16 | 358 | 1.6 | 11.3 | 0.00 | 0.00 | 0.00 | 45 | 1008.0 |
| 20260501175049 | 16 | 360 | 3.2 | 11.3 | 0.00 | 0.00 | 0.00 | 41 | 1008.1 |
| 20260501174549 | 16 | 334 | 0.0 | 12.9 | 0.00 | 0.00 | 0.00 | 43 | 1008.1 |
| 20260501174047 | 16 | 14 | 6.4 | 12.9 | 0.00 | 0.00 | 0.00 | 44 | 1008.2 |
| 20260501173546 | 16 | 3 | 3.2 | 12.9 | 0.00 | 0.00 | 0.00 | 44 | 1008.2 |
| 20260501173046 | 16 | 349 | 3.2 | 16.1 | 0.00 | 0.00 | 0.00 | 44 | 1008.4 |
| 20260501172547 | 16 | 342 | 3.2 | 16.1 | 0.00 | 0.00 | 0.00 | 43 | 1008.3 |
| 20260501172044 | 16 | 53 | 4.8 | 16.1 | 0.00 | 0.00 | 0.00 | 45 | 1008.2 |
| 20260501171545 | 16 | 14 | 1.6 | 14.5 | 0.00 | 0.00 | 0.00 | 45 | 1008.3 |
| 20260501171045 | 16 | 303 | 4.8 | 14.5 | 0.00 | 0.00 | 0.00 | 47 | 1008.4 |
| 20260501170542 | 16 | 195 | 1.6 | 14.5 | 0.00 | 0.00 | 0.00 | 48 | 1008.4 |
| 20260501170041 | 15 | 159 | 3.2 | 14.5 | 0.00 | 0.00 | 0.00 | 47 | 1008.5 |
| 20260501165540 | 15 | 10 | 4.8 | 12.9 | 0.00 | 0.03 | 0.00 | 51 | 1008.6 |
| 20260501165040 | 15 | 360 | 6.4 | 14.5 | 0.00 | 0.03 | 0.00 | 50 | 1008.7 |
| 20260501164539 | 15 | 348 | 3.2 | 14.5 | 0.00 | 0.03 | 0.00 | 50 | 1008.6 |
| 20260501164037 | 14 | 11 | 3.2 | 16.1 | 0.00 | 0.03 | 0.00 | 51 | 1008.6 |
| 20260501163538 | 14 | 356 | 6.4 | 16.1 | 0.00 | 0.03 | 0.00 | 50 | 1008.7 |
| 20260501163036 | 14 | 15 | 4.8 | 11.3 | 0.00 | 0.03 | 0.00 | 51 | 1008.6 |
| 20260501162537 | 14 | 335 | 3.2 | 11.3 | 0.00 | 0.03 | 0.00 | 55 | 1008.6 |
| 20260501162034 | 14 | 30 | 3.2 | 11.3 | 0.00 | 0.03 | 0.00 | 55 | 1008.6 |
| 20260501161538 | 14 | 358 | 3.2 | 14.5 | 0.00 | 0.03 | 0.00 | 55 | 1008.6 |
| 20260501161036 | 13 | 6 | 4.8 | 14.5 | 0.00 | 0.03 | 0.00 | 54 | 1008.7 |
| 20260501160534 | 13 | 3 | 4.8 | 12.9 | 0.00 | 0.03 | 0.00 | 55 | 1008.7 |
| 20260501160044 | 13 | 171 | 0.0 | 11.3 | 0.00 | 0.03 | 0.00 | 56 | 1008.7 |
| 20260501155534 | 13 | 360 | 1.6 | 11.3 | 0.00 | 0.20 | 0.00 | 54 | 1008.7 |
| 20260501155036 | 14 | 20 | 4.8 | 11.3 | 0.00 | 0.20 | 0.00 | 54 | 1008.7 |
| 20260501154604 | 14 | 229 | 0.0 | 9.7 | 0.00 | 0.20 | 0.00 | 57 | 1008.8 |
| 20260501154034 | 13 | 235 | 1.6 | 11.3 | 0.00 | 0.20 | 0.00 | 56 | 1008.8 |
| 20260501153530 | 13 | 11 | 3.2 | 16.1 | 0.00 | 0.20 | 0.00 | 56 | 1008.9 |
| 20260501153029 | 13 | 5 | 3.2 | 16.1 | 0.00 | 0.20 | 0.00 | 54 | 1008.9 |
| 20260501152529 | 13 | 310 | 4.8 | 14.5 | 0.00 | 0.20 | 0.00 | 56 | 1009.0 |
| 20260501152027 | 12 | 318 | 3.2 | 14.5 | 0.00 | 0.20 | 0.00 | 55 | 1009.1 |
| 20260501151527 | 12 | 8 | 8.0 | 14.5 | 0.00 | 0.20 | 0.00 | 55 | 1009.0 |
| 20260501151030 | 12 | 12 | 4.8 | 14.5 | 0.00 | 0.20 | 0.00 | 57 | 1009.0 |
| 20260501150526 | 12 | 84 | 3.2 | 12.9 | 0.00 | 0.20 | 0.00 | 60 | 1009.1 |
| 20260501150029 | 12 | 338 | 1.6 | 12.9 | 0.00 | 0.20 | 0.00 | 60 | 1009.1 |
| 20260501145529 | 12 | 15 | 4.8 | 14.5 | 0.00 | 0.20 | 0.00 | 61 | 1009.1 |